This demonstration page uses our WeatherBlox Daily Observations layout. Learn more.

Left ArrowRight Arrow

39.01783, -85.05884

Hourly Observations for August 16, 2022

Temp ( °F °C ) Dew Point ( °F °C ) Humidity (%) Winds ( mph kmh ) Pressure ( in mb ) Visibility ( mi km ) Precip ( " mm )
12:52 am 00:52 Mostly Cloudy 68 20 60 15.6 76 76 N 7 11 29.98 1015 10 16 0.00 0.00
1:52 am 01:52 Partly Cloudy 67 19.4 60 15.6 79 79 NNW 5 7 29.96 1015 10 16 0.00 0.00
2:52 am 02:52 Partly Cloudy 65 18.3 60 15.6 84 84 N 6 9 29.95 1014 10 16 0.00 0.00
3:52 am 03:52 Mostly Clear 64 17.8 60 15.6 87 87 N 7 11 29.95 1014 10 16 0.00 0.00
4:52 am 04:52 Mostly Clear 64 17.8 60 15.6 87 87 N 3 6 29.94 1014 10 16 0.00 0.00
5:52 am 05:52 Mostly Clear 64 17.8 61 16.1 90 90 N 7 11 29.95 1014 10 16 0.00 0.00
6:52 am 06:52 Mostly Clear 64 17.8 61 16.1 90 90 NNE 8 13 29.97 1015 10 16 0.00 0.00
7:52 am 07:52 Mostly Sunny 64 17.8 61 16.1 90 90 N 7 11 29.98 1015 9 14 0.00 0.00
8:52 am 08:52 Mostly Sunny 68 20 62 16.7 81 81 NNE 8 13 29.99 1016 10 16 0.00 0.00
9:52 am 09:52 Partly Cloudy 71 21.7 61 16.1 70 70 ENE 9 15 30.00 1016 10 16 0.00 0.00
10:52 am 10:52 Mostly Sunny 74 23.3 61 16.1 64 64 NE 9 15 30.00 1016 10 16 0.00 0.00
11:52 am 11:52 Mostly Sunny 76 24.4 61 16.1 60 60 NNE 15 24 30.00 1016 10 16 0.00 0.00
12:52 pm 12:52 Mostly Cloudy 78 25.6 60 15.6 54 54 NE 9 15 29.99 1016 10 16 0.00 0.00
1:52 pm 13:52 Partly Cloudy 80 26.7 59 15 49 49 NNE 13 20 29.99 1016 10 16 0.00 0.00
2:52 pm 14:52 Partly Cloudy 81 27.2 60 15.6 49 49 N 10 17 29.97 1015 10 16 0.00 0.00
3:52 pm 15:52 Partly Cloudy 81 27.2 58 14.4 45 45 NNW 12 19 29.96 1015 10 16 0.00 0.00
4:52 pm 16:52 Mostly Cloudy 83 28.3 60 15.6 46 46 N 10 17 29.95 1014 10 16 0.00 0.00
5:52 pm 17:52 Partly Cloudy 80 26.7 58 14.4 47 47 N 16 26 29.95 1014 10 16 0.01 0.13
6:52 pm 18:52 Partly Cloudy 79 26.1 60 15.6 52 52 N 14 22 29.95 1014 10 16 0.00 0.00
7:52 pm 19:52 Partly Cloudy 76 24.4 61 16.1 60 60 N 12 19 29.96 1015 10 16 0.00 0.00
8:52 pm 20:52 Mostly Clear 74 23.3 61 16.1 64 64 N 10 17 29.96 1015 10 16 0.00 0.00
9:52 pm 21:52 Mostly Clear 74 23.3 62 16.7 66 66 NNE 9 15 29.97 1015 10 16 0.00 0.00
10:52 pm 22:52 Mostly Clear 73 22.8 62 16.7 68 68 NE 10 17 30.00 1016 10 16 0.00 0.00
11:52 pm 23:52 Partly Cloudy 71 21.7 62 16.7 73 73 NE 9 15 30.00 1016 10 16 0.00 0.00

Powered by AerisWeather